Location: Boitzum
(52.1496°N, 9.6943°E)
Time: 01:24:31
(UTC+00:00)

Cosmos 2074 Rocket - Pass Details

Date: 26 April 2026
Orbit: 967 x 984 km, 82.9° (Epoch: 19 May)

Event Time Altitude Azimuth Distance (km) Brightness Sun altitude
Rises 03:15:26 0° 352° (N) 3,706 7.4 -7.0°
Reaches altitude 10° 03:18:09 10° 360° (N) 2,754 6.8 -6.7°
Maximum altitude 03:24:05 41° 69° (ENE) 1,397 5.6 -5.9°
Drops below altitude 10° 03:29:58 10° 139° (SE) 2,734 6.5 -5.1°
Sets 03:32:38 0° 147° (SSE) 3,676 7.1 -4.8°
